Flag for U.S.A. Weather past 2 weeks in Salinas, California, U.S.A.

Now
74 °F

Sunny.


Feels Like: 77 °F
Forecast: 59 / 72 °F
Wind: 14 mph from West

Location: Salinas Municipal Airport

Current Time: Jul 2, 2015 at 4:13:52 PM

Latest Report: Jul 2, 2015 at 2:53 PM


Visibility: 10 mi

Pressure: 29.97 "Hg

Humidity: 57%

Dew point: 58 °F

Location of SalinasLocation

Historic Weather in Salinas — Graph

°F

Salinas temperature yesterday

Maximum temperature yesterday: 76 °F (at 12:53 PM)
Minimum temperature yesterday: 54 °F (at 4:58 AM)
Average temperature yesterday: 63 °F

Past Weeks' High & Low Weather Summary

 TemperatureHumidityPressure
High76 °F (Jul 1, 12:53 PM)100% (Jun 26, 6:53 AM)30.09 "Hg (Jun 26, 6:53 AM)
Low50 °F (Jun 20, 3:53 AM)50% (Jul 1, 12:53 PM)29.85 "Hg (Jul 1, 4:58 AM)
Average61 °F75%29.99 "Hg
* Reported Jun 17 2:53 PM — Jul 2 2:53 PM, Salinas, Weather by CustomWeather, © 2015

Note: Actual official high and low records may vary slightly from our data, if they occured in-between our weather recording intervals... More about our weather records

Advertising

Salinas weather history for previous 24 hours

 ConditionsComfort  
Time TempWeatherWind HumidityBarometerVisibility
2:53 PM
Thu, Jul 2
74 °FSunny.14 mph57%29.97 "Hg10 mi
1:53 PM72 °FSunny.13 mph59%29.99 "Hg10 mi
12:53 PM74 °FSunny.13 mph57%30.00 "Hg10 mi
11:53 AM72 °FSunny.8 mph59%30.00 "Hg10 mi
10:53 AM68 °FSunny.7 mph68%30.01 "Hg10 mi
9:53 AM64 °FScattered clouds.6 mph78%30.02 "Hg10 mi
8:53 AM60 °FLow clouds.3 mph83%30.03 "Hg10 mi
7:53 AM58 °FFog.6 mph93%30.01 "Hg6 mi
6:53 AM57 °FFog.5 mph93%30.00 "Hg2 mi
5:53 AM57 °FFog.No wind96%29.99 "Hg1 mi
4:53 AM57 °FFog.5 mph93%29.97 "Hg2 mi
4:01 AM57 °FFog.5 mph94%29.94 "Hg3 mi
3:01 AM57 °FFog.3 mph94%29.94 "Hg2 mi
1:53 AM57 °FFog.6 mph93%29.96 "Hg6 mi
12:53 AM58 °FFog.7 mph90%29.96 "Hg6 mi
11:53 PM
Wed, Jul 1
59 °FClear.5 mph90%29.95 "Hg7 mi
10:53 PM59 °FClear.3 mph90%29.95 "Hg9 mi
9:53 PM60 °FClear.7 mph86%29.95 "Hg10 mi
8:53 PM60 °FSunny.10 mph86%29.94 "Hg10 mi
7:53 PM64 °FSunny.9 mph75%29.94 "Hg10 mi
6:53 PM65 °FSunny.12 mph70%29.93 "Hg10 mi
5:53 PM65 °FSunny.14 mph70%29.90 "Hg10 mi
4:53 PM67 °FSunny.13 mph66%29.92 "Hg10 mi
Weather by CustomWeather, © 2015

See weather overviewHow to use our weather pages